• In France
  • List of Countries
  • For 7 days
  • Water Temperature
  • Satellite Maps
  • Weather Map
  • Weather Widgets
  • user-avatar
    Login

    Hourly Weather Abidzhan

    Today, 20 August, Monday

    Time Temperature Precipitation Wind Pressure Humidity
    00:00 +25°C° 0 mm 3 mps 758 mmHg 89%
    01:00 +25°C° 0 mm 3 mps 758 mmHg 90%
    02:00 +25°C° 0 mm 3 mps 757 mmHg 90%
    03:00 +25°C° 0 mm 3 mps 757 mmHg 91%
    04:00 +25°C° 0 mm 3 mps 757 mmHg 92%
    05:00 +25°C° 0 mm 3 mps 757 mmHg 92%
    06:00 +25°C° 0 mm 2 mps 758 mmHg 93%
    07:00 +26°C° 0 mm 3 mps 758 mmHg 86%
    08:00 +27°C° 0 mm 3 mps 758 mmHg 79%
    09:00 +29°C° 0 mm 3 mps 759 mmHg 73%
    10:00 +29°C° 0.4 mm 3 mps 758 mmHg 72%
    11:00 +29°C° 0.4 mm 3 mps 758 mmHg 72%
    12:00 +30°C° 0.4 mm 4 mps 758 mmHg 71%
    13:00 +30°C° 0.6 mm 4 mps 757 mmHg 71%
    14:00 +30°C° 0.6 mm 4 mps 756 mmHg 72%
    15:00 +30°C° 0.6 mm 4 mps 756 mmHg 72%
    16:00 +29°C° 0.1 mm 4 mps 756 mmHg 75%
    17:00 +28°C° 0.1 mm 4 mps 756 mmHg 78%
    18:00 +28°C° 0.1 mm 4 mps 756 mmHg 81%
    19:00 +27°C° 0 mm 3 mps 756 mmHg 82%
    20:00 +27°C° 0 mm 3 mps 757 mmHg 83%
    21:00 +26°C° 0 mm 3 mps 757 mmHg 85%
    22:00 +26°C° 0 mm 3 mps 758 mmHg 85%
    23:00 +26°C° 0 mm 3 mps 758 mmHg 86%

    Tomorrow, 21 August, Tuesday

    Time Temperature Precipitation Wind Pressure Humidity
    00:00 +26°C° 0 mm 3 mps 758 mmHg 87%
    01:00 +26°C° 0.2 mm 3 mps 758 mmHg 88%
    02:00 +26°C° 0.2 mm 3 mps 757 mmHg 89%
    03:00 +26°C° 0.2 mm 3 mps 757 mmHg 89%
    04:00 +25°C° 0.3 mm 3 mps 757 mmHg 90%
    05:00 +25°C° 0.3 mm 3 mps 757 mmHg 91%
    06:00 +25°C° 0.3 mm 3 mps 757 mmHg 93%
    07:00 +26°C° 0.3 mm 3 mps 758 mmHg 86%
    08:00 +27°C° 0.3 mm 3 mps 758 mmHg 80%
    09:00 +28°C° 0.3 mm 4 mps 758 mmHg 74%
    10:00 +29°C° 0.9 mm 4 mps 758 mmHg 73%
    11:00 +29°C° 0.9 mm 4 mps 758 mmHg 73%
    12:00 +29°C° 0.9 mm 4 mps 758 mmHg 72%
    13:00 +29°C° 1.5 mm 4 mps 757 mmHg 73%
    14:00 +29°C° 1.5 mm 4 mps 756 mmHg 75%
    15:00 +29°C° 1.5 mm 4 mps 756 mmHg 76%
    16:00 +28°C° 1.3 mm 4 mps 756 mmHg 79%
    17:00 +28°C° 1.3 mm 4 mps 756 mmHg 82%
    18:00 +27°C° 1.3 mm 4 mps 756 mmHg 86%
    19:00 +26°C° 0.3 mm 4 mps 756 mmHg 87%
    20:00 +26°C° 0.3 mm 4 mps 757 mmHg 89%
    21:00 +26°C° 0.3 mm 4 mps 757 mmHg 90%
    22:00 +25°C° 0 mm 4 mps 757 mmHg 91%
    23:00 +25°C° 0 mm 4 mps 757 mmHg 91%

    Day after tomorrow, 22 August, Wednesday

    Time Temperature Precipitation Wind Pressure Humidity
    00:00 +25°C° 0 mm 4 mps 758 mmHg 92%
    01:00 +25°C° 0 mm 4 mps 757 mmHg 92%
    02:00 +25°C° 0 mm 4 mps 757 mmHg 93%
    03:00 +25°C° 0 mm 4 mps 756 mmHg 93%
    04:00 +25°C° 0 mm 3 mps 756 mmHg 94%
    05:00 +25°C° 0 mm 3 mps 756 mmHg 94%
    06:00 +25°C° 0 mm 3 mps 756 mmHg 94%
    07:00 +26°C° 0 mm 3 mps 757 mmHg 89%
    08:00 +27°C° 0 mm 3 mps 758 mmHg 83%
    09:00 +29°C° 0 mm 3 mps 758 mmHg 77%
    10:00 +29°C° 0.8 mm 3 mps 758 mmHg 75%
    11:00 +30°C° 0.8 mm 4 mps 758 mmHg 73%
    12:00 +30°C° 0.8 mm 4 mps 758 mmHg 71%
    13:00 +30°C° 0.8 mm 4 mps 757 mmHg 72%
    14:00 +30°C° 0.8 mm 4 mps 756 mmHg 73%
    15:00 +30°C° 0.8 mm 5 mps 755 mmHg 74%
    16:00 +29°C° 0.2 mm 5 mps 755 mmHg 77%
    17:00 +28°C° 0.2 mm 5 mps 755 mmHg 80%
    18:00 +28°C° 0.2 mm 5 mps 755 mmHg 82%
    19:00 +27°C° 0.1 mm 4 mps 756 mmHg 84%
    20:00 +26°C° 0.1 mm 4 mps 757 mmHg 86%
    21:00 +26°C° 0.1 mm 4 mps 757 mmHg 89%
    22:00 +26°C° 0.1 mm 4 mps 757 mmHg 89%
    23:00 +26°C° 0.1 mm 4 mps 757 mmHg 90%

    23 August, Thursday

    Time Temperature Precipitation Wind Pressure Humidity
    00:00 +25°C° 0.1 mm 4 mps 757 mmHg 91%
    01:00 +25°C° 0.1 mm 4 mps 757 mmHg 91%
    02:00 +25°C° 0.1 mm 4 mps 756 mmHg 92%
    03:00 +25°C° 0.1 mm 4 mps 756 mmHg 92%
    04:00 +25°C° 0.2 mm 4 mps 756 mmHg 92%
    05:00 +25°C° 0.2 mm 3 mps 756 mmHg 92%
    06:00 +25°C° 0.2 mm 3 mps 756 mmHg 93%
    07:00 +26°C° 0.2 mm 3 mps 757 mmHg 88%
    08:00 +27°C° 0.2 mm 3 mps 757 mmHg 84%
    09:00 +28°C° 0.2 mm 3 mps 758 mmHg 79%
    10:00 +28°C° 0.5 mm 4 mps 757 mmHg 79%
    11:00 +29°C° 0.5 mm 4 mps 757 mmHg 78%
    12:00 +29°C° 0.5 mm 4 mps 757 mmHg 77%
    13:00 +29°C° 0.2 mm 5 mps 756 mmHg 76%
    14:00 +29°C° 0.2 mm 5 mps 755 mmHg 74%
    15:00 +29°C° 0.2 mm 5 mps 754 mmHg 73%
    16:00 +29°C° 0.1 mm 5 mps 754 mmHg 75%
    17:00 +28°C° 0.1 mm 5 mps 755 mmHg 78%
    18:00 +27°C° 0.1 mm 4 mps 755 mmHg 81%
    19:00 +27°C° 0 mm 4 mps 756 mmHg 83%
    20:00 +26°C° 0 mm 4 mps 756 mmHg 85%
    21:00 +26°C° 0 mm 4 mps 757 mmHg 87%
    22:00 +26°C° 0 mm 4 mps 757 mmHg 87%
    23:00 +26°C° 0 mm 4 mps 757 mmHg 88%

    24 August, Friday

    Time Temperature Precipitation Wind Pressure Humidity
    00:00 +26°C° 0 mm 3 mps 757 mmHg 89%
    01:00 +26°C° 0.1 mm 4 mps 756 mmHg 89%
    02:00 +25°C° 0.1 mm 4 mps 756 mmHg 90%
    03:00 +25°C° 0.1 mm 4 mps 755 mmHg 90%
    04:00 +25°C° 0.1 mm 4 mps 755 mmHg 91%
    05:00 +25°C° 0.1 mm 3 mps 755 mmHg 91%
    06:00 +25°C° 0.1 mm 3 mps 756 mmHg 91%
    07:00 +26°C° 0 mm 3 mps 756 mmHg 87%
    08:00 +27°C° 0 mm 4 mps 757 mmHg 83%
    09:00 +28°C° 0 mm 4 mps 757 mmHg 80%
    10:00 +28°C° 0.2 mm 4 mps 757 mmHg 78%
    11:00 +28°C° 0.2 mm 4 mps 756 mmHg 77%
    12:00 +29°C° 0.2 mm 4 mps 756 mmHg 75%
    13:00 +29°C° 0.3 mm 4 mps 756 mmHg 75%
    14:00 +29°C° 0.3 mm 5 mps 755 mmHg 75%
    15:00 +29°C° 0.3 mm 5 mps 754 mmHg 75%
    16:00 +28°C° 0.2 mm 5 mps 755 mmHg 78%
    17:00 +27°C° 0.2 mm 4 mps 755 mmHg 80%
    18:00 +27°C° 0.2 mm 4 mps 755 mmHg 83%
    19:00 +26°C° 0.1 mm 4 mps 755 mmHg 84%
    20:00 +26°C° 0.1 mm 4 mps 756 mmHg 85%
    21:00 +26°C° 0.1 mm 4 mps 756 mmHg 86%
    22:00 +26°C° 0.1 mm 4 mps 756 mmHg 87%
    23:00 +26°C° 0.1 mm 4 mps 756 mmHg 87%

    25 August, Saturday

    Time Temperature Precipitation Wind Pressure Humidity
    00:00 +26°C° 0.1 mm 3 mps 757 mmHg 88%
    01:00 +26°C° 0.1 mm 4 mps 756 mmHg 88%
    02:00 +25°C° 0.1 mm 4 mps 756 mmHg 88%
    03:00 +25°C° 0.1 mm 4 mps 756 mmHg 89%
    04:00 +25°C° 0.2 mm 4 mps 756 mmHg 89%
    05:00 +25°C° 0.2 mm 3 mps 756 mmHg 90%
    06:00 +25°C° 0.2 mm 3 mps 757 mmHg 90%
    07:00 +26°C° 0.2 mm 3 mps 757 mmHg 89%
    08:00 +26°C° 0.2 mm 3 mps 757 mmHg 87%
    09:00 +26°C° 0.2 mm 3 mps 758 mmHg 86%
    10:00 +27°C° 0.5 mm 4 mps 758 mmHg 84%
    11:00 +28°C° 0.5 mm 4 mps 757 mmHg 81%
    12:00 +28°C° 0.5 mm 5 mps 757 mmHg 79%
    13:00 +28°C° 0.3 mm 5 mps 756 mmHg 80%
    14:00 +28°C° 0.3 mm 5 mps 756 mmHg 82%
    15:00 +27°C° 0.3 mm 5 mps 755 mmHg 83%
    16:00 +27°C° 0.2 mm 4 mps 755 mmHg 84%
    17:00 +26°C° 0.2 mm 4 mps 755 mmHg 86%
    18:00 +26°C° 0.2 mm 4 mps 755 mmHg 87%
    19:00 +26°C° 0.1 mm 4 mps 756 mmHg 88%
    20:00 +26°C° 0.1 mm 4 mps 757 mmHg 89%
    21:00 +25°C° 0.1 mm 3 mps 757 mmHg 91%
    22:00 +25°C° 0.1 mm 3 mps 757 mmHg 91%
    23:00 +25°C° 0.1 mm 3 mps 757 mmHg 91%
    Show more